Tracking 26894 objects as of 2-Feb-2023
HD Live streaming from Space Station
objects crossing your sky now

BREEZE-M DEB (TANK)

Track BREEZE-M DEB (TANK) now!
10-day predictions


NORAD ID: 36133
Int'l Code: 2009-075C
Perigee: 461.8 km
Apogee: 14,859.7 km
Inclination: 45.8 °
Period: 275.7 minutes
Semi major axis: 14031 km
RCS: 6.9327 m2 (large)
Launch date: December 29, 2009
Source: Commonwealth of Independent States (former USSR) (CIS)
Launch site: TYURATAM MISSILE AND SPACE COMPLEX (TTMTR)

Note: This is SATELLITE DEBRIS
Your satellite tracking list
Your tracking list is empty




NASA's NSSDC Master Catalog

Two Line Element Set (TLE):
1 36133U 09075C   23031.67774514  .00000070  00000-0  17679-3 0  9997
2 36133  45.8499 152.4755 5130465   6.9142 358.0372  5.22318970248382
Source of the keplerian elements: AFSPC